Home   Weather   Thiruvananthapuram   Past weeks

Flag for India Past Weather in Thiruvananthapuram, Kerala, India — Yesterday and Last 2 Weeks

Now
82 °F

Passing clouds.


Feels Like: 91 °F
Forecast: 75 / 90 °F
Wind: No wind

Location: Thiruvananthapuram

Current Time: Feb 22, 2017 at 12:28:13 am

Latest Report: Feb 22, 2017 at 12:00 am


Visibility: 2 mi

Pressure: 29.83 "Hg

Humidity: 84%

Dew Point: 77 °F

Location of ThiruvananthapuramLocation

Past Weather in Thiruvananthapuram — Graph

°F

Thiruvananthapuram Temperature Yesterday

Maximum temperature yesterday: 90 °F (at 12:30 pm)
Minimum temperature yesterday: 79 °F (at 4:00 am)
Average temperature yesterday: 84 °F

High & Low Weather Summary for the Past Weeks

 TemperatureHumidityPressure
High91 °F (Feb 14, 11:30 am)89% (Feb 8, 5:30 am)29.98 "Hg (Feb 8, 5:30 am)
Low73 °F (Feb 12, 7:00 am)29% (Feb 17, 9:30 am)29.74 "Hg (Feb 21, 3:00 pm)
Average83 °F63%29.87 "Hg
* Reported Feb 6 10:30 pm — Feb 21 11:00 pm, Thiruvananthapuram, Weather by CustomWeather, © 2017

Note: Actual official high and low records may vary slightly from our data, if they occured in-between our weather recording intervals... More about our weather records

Advertising

Thiruvananthapuram Weather History for the Previous 24 Hours

Scroll right to see more
 ConditionsComfort  
Time TempWeatherWind HumidityBarometerVisibility
11:00 pm
Tue, Feb 21
82 °FPassing clouds.No wind84%29.86 "Hg2 mi
10:30 pm82 °FPassing clouds.No wind84%29.86 "Hg2 mi
10:00 pm84 °FPassing clouds.3 mph79%29.86 "Hg2 mi
9:30 pm84 °FPassing clouds.3 mph79%29.86 "Hg2 mi
9:00 pm84 °FPassing clouds.3 mph79%29.86 "Hg2 mi
8:30 pm84 °FPassing clouds.6 mph79%29.83 "Hg2 mi
8:00 pm84 °FPassing clouds.6 mph79%29.83 "Hg2 mi
7:30 pm84 °FPartly cloudy.6 mph79%29.80 "Hg2 mi
7:00 pm84 °FBroken clouds.7 mph79%29.80 "Hg2 mi
6:30 pm84 °FScattered clouds.9 mph79%29.77 "Hg2 mi
6:00 pm84 °FScattered clouds.7 mph79%29.77 "Hg2 mi
5:30 pm86 °FScattered clouds.10 mph70%29.74 "Hg2 mi
5:00 pm86 °FScattered clouds.10 mph70%29.74 "Hg2 mi
4:30 pm86 °FScattered clouds.12 mph70%29.74 "Hg2 mi
4:00 pm88 °FScattered clouds.10 mph70%29.74 "Hg2 mi
3:30 pm86 °FScattered clouds.10 mph75%29.74 "Hg2 mi
3:00 pm88 °FScattered clouds.12 mph66%29.74 "Hg2 mi
2:30 pm88 °FScattered clouds.12 mph66%29.77 "Hg2 mi
2:00 pm88 °FScattered clouds.12 mph66%29.80 "Hg2 mi
1:30 pm88 °FBroken clouds.14 mph66%29.80 "Hg2 mi
1:00 pm88 °FBroken clouds.12 mph66%29.83 "Hg2 mi
12:30 pm90 °FBroken clouds.12 mph63%29.83 "Hg2 mi
12:00 pm88 °FBroken clouds.13 mph66%29.86 "Hg2 mi
11:30 am88 °FBroken clouds.10 mph62%29.86 "Hg2 mi
11:00 am88 °FBroken clouds.9 mph62%29.86 "Hg2 mi
10:30 am86 °FBroken clouds.10 mph66%29.89 "Hg2 mi
10:00 am86 °FBroken clouds.13 mph66%29.89 "Hg1 mi
9:30 am84 °FBroken clouds.8 mph70%29.89 "Hg1 mi
9:00 am82 °FBroken clouds.9 mph79%29.89 "Hg1 mi
8:30 am82 °FBroken clouds.8 mph79%29.86 "Hg1 mi
8:00 am81 °FBroken clouds.7 mph84%29.86 "Hg1 mi
7:30 am81 °FBroken clouds.8 mph79%29.83 "Hg1 mi
7:00 am79 °FPartly cloudy.7 mph84%29.83 "Hg1 mi
6:30 am81 °FPartly cloudy.6 mph79%29.83 "Hg2 mi
6:00 am79 °FPartly cloudy.6 mph84%29.80 "Hg2 mi
5:30 am79 °FPassing clouds.6 mph84%29.80 "Hg2 mi
5:00 am81 °FPassing clouds.6 mph79%29.80 "Hg2 mi
4:30 am81 °FPassing clouds.6 mph79%29.80 "Hg2 mi
4:00 am79 °FPassing clouds.6 mph84%29.80 "Hg2 mi
3:30 am81 °FPassing clouds.6 mph79%29.80 "Hg2 mi
3:00 am81 °FPassing clouds.5 mph79%29.80 "Hg2 mi
2:30 am81 °FPassing clouds.6 mph79%29.80 "Hg2 mi
2:00 am81 °FPassing clouds.6 mph79%29.80 "Hg2 mi
1:30 am81 °FPassing clouds.6 mph79%29.83 "Hg2 mi
1:00 am81 °FPassing clouds.6 mph79%29.83 "Hg2 mi
12:30 am81 °FPassing clouds.6 mph79%29.86 "Hg2 mi
12:00 am81 °FPassing clouds.5 mph79%29.86 "Hg2 mi
Weather by CustomWeather, © 2017

See weather overviewHow to use our weather pages